Location: Munderkingen
(48.2395°N, 9.6433°E)
Time: 00:57:33
(UTC+01:00)

Envisat - Visible Passes

Search period start: 24 November 2017 00:00
Search period end: 04 December 2017 00:00
Orbit: 764 x 766 km, 98.2° (Epoch: 23 November)

Date Brightness Start Highest point End Pass type
(mag) Time Alt. Az. Time Alt. Az. Time Alt. Az.
24 Nov 5.2 18:24:47 10° NNE 18:24:47 10° NNE 18:24:54 10° NNE visible
24 Nov 5.5 20:04:59 12° NNW 20:04:59 12° NNW 20:05:18 10° NNW visible
25 Nov 5.3 19:27:55 13° N 19:27:55 13° N 19:28:25 10° N visible
26 Nov 5.2 18:50:50 12° N 18:50:50 12° N 18:51:12 10° N visible
27 Nov 5.5 19:53:57 11° NNW 19:53:57 11° NNW 19:54:10 10° NNW visible
28 Nov 5.3 19:16:53 12° N 19:16:53 12° N 19:17:12 10° N visible
29 Nov 5.3 18:39:47 10° NNE 18:39:47 10° NNE 18:39:50 10° NNE visible
30 Nov 5.5 19:42:54 11° N 19:42:54 11° N 19:43:00 10° N visible
01 Dec 5.3 19:05:48 11° N 19:05:48 11° N 19:05:56 10° N visible
03 Dec 5.5 19:31:49 10° N 19:31:49 10° N 19:31:49 10° N visible
